Tracking 26321 objects as of 27-Nov-2022
HD Live streaming from Space Station
objects crossing your sky now

STARLINK-4595

Track STARLINK-4595 now!
10-day predictions
STARLINK-4595 is classified as:


NORAD ID: 53627
Int'l Code: 2022-104AR
Perigee: 545.6 km
Apogee: 548.1 km
Inclination: 53.2 °
Period: 95.4 minutes
Semi major axis: 6917 km
RCS: Unknown
Launch date: August 28, 2022
Source: United States (US)
Launch site: AIR FORCE EASTERN TEST RANGE (AFETR)
aabbcc
Your satellite tracking list
Your tracking list is empty




NASA's NSSDC Master Catalog

Two Line Element Set (TLE):
1 53627U 22104AR  22330.91667824 -.00028650  00000-0 -17891-2 0  9996
2 53627  53.2153 215.3378 0001810  55.4718 352.9477 15.08841380  1302
Source of the keplerian elements: AFSPC